Tracking 19245 objects as of 14-Aug-2018
HD Live streaming from Space Station
objects crossing your sky now

OBJECT K

Track OBJECT K now!
10-day predictions


NORAD ID: 42834
Int'l Code: 2017-042K
Perigee: 592.1 km
Apogee: 611.6 km
Inclination: 97.6 °
Period: 96.6 minutes
Semi major axis: 6972 km
RCS: Unknown
Launch date: July 14, 2017
Source: (TBD)
Launch site: TYURATAM MISSILE AND SPACE COMPLEX (TTMTR)
aabbcc
Your satellite tracking list
Your tracking list is empty




NASA's NSSDC Master Catalog

Two Line Element Set (TLE):
1 42834U 17042K   18226.50753826  .00000036  00000-0  91101-5 0  9996
2 42834  97.5913 126.7928 0013970  14.6244 345.5376 14.91035469 59024
Source of the keplerian elements: AFSPC